Change the Weather History Date:

Thursday, October 11, 2012

  Actual Average Record
Temperature  
Mean Temperature 55 °F 50 °F  
Max Temperature 73 °F 62 °F 73 °F (2012)
Min Temperature 37 °F 38 °F 26 °F (2008)
Degree Days  
Heating Degree Days 10 15  
Month to date heating degree days 142 142  
Since 1 July heating degree days 229 353  
Cooling Degree Days 0 0  
Month to date cooling degree days 0 0  
Year to date cooling degree days 509 406  
Growing Degree Days 6 (Base 50)    
Moisture  
Dew Point 36 °F    
Average Humidity 54    
Maximum Humidity 85    
Minimum Humidity 23    
Precipitation  
Precipitation 0.00 in 0.04 in 0.04 in (2011)
Month to date precipitation 0.00 0.37  
Year to date precipitation 13.87 11.95  
Sea Level Pressure  
Sea Level Pressure 29.92 in    
Wind  
Wind Speed 2 mph (NNE)    
Max Wind Speed 6 mph    
Max Gust Speed 7 mph    
Visibility 10 miles    
Events      
T = Trace of Precipitation, MM = Missing Value Source: NWS Daily Summary

Daily Weather History Graph

Daily Weather History Graph

Search for Another Location

Airport or City:

Trip Planner

Search our weather history database for the weather conditions in past years. The results will help you decide how hot, cold, wet, or windy it might be!

Date:

Astronomy

Oct. 11, 2012 Rise Set
Actual Time 7:03 AM PDT 6:07 PM PDT
Civil Twilight 6:32 AM PDT 6:38 PM PDT
Nautical Twilight 5:56 AM PDT 7:14 PM PDT
Astronomical Twilight 5:20 AM PDT 7:49 PM PDT
Moon 2:30 AM PDT (10/11) 4:00 PM PDT (10/11)
Length of Visible Light 12h 06m
Length of Day
11h 04m
Waning Crescent, 17% of the Moon is Illuminated
Oct 11
Waning Crescent
Oct 15
New
Oct 21
First Quarter
Oct 29
Full
Nov 6
Last Quarter

Hourly Weather History & Observations

Time (PDT) Temp. Windchill Dew Point Humidity Pressure Visibility Wind Dir Wind Speed Gust Speed Precip Events Conditions
12:53 AM 44.1 °F 42.5 °F 35.1 °F 71% 29.92 in 10.0 mi NE 3.5 mph - N/A   Clear
1:53 AM 43.0 °F 41.3 °F 36.0 °F 76% 29.94 in 10.0 mi NNE 3.5 mph - N/A   Clear
2:53 AM 43.0 °F 40.3 °F 35.1 °F 74% 29.95 in 10.0 mi NNE 4.6 mph - N/A   Clear
3:53 AM 43.0 °F 41.3 °F 36.0 °F 76% 29.95 in 10.0 mi NNE 3.5 mph - N/A   Clear
4:53 AM 41.0 °F - 35.1 °F 79% 29.96 in 10.0 mi Calm Calm - N/A   Clear
5:53 AM 39.9 °F - 35.1 °F 83% 29.98 in 10.0 mi Calm Calm - N/A   Clear
6:53 AM 39.0 °F 36.8 °F 35.1 °F 86% 29.99 in 9.0 mi NNE 3.5 mph - N/A   Clear
7:53 AM 41.0 °F - 36.0 °F 82% 30.00 in 9.0 mi Calm Calm - N/A   Clear
8:53 AM 46.9 °F - 37.0 °F 68% 30.01 in 10.0 mi Calm Calm - N/A   Clear
9:53 AM 52.0 °F - 37.9 °F 59% 30.01 in 10.0 mi Calm Calm - N/A   Clear
10:53 AM 57.0 °F - 39.0 °F 51% 30.00 in 10.0 mi North 3.5 mph - N/A   Clear
11:53 AM 62.1 °F - 39.0 °F 43% 29.98 in 10.0 mi Variable 3.5 mph - N/A   Clear
12:53 PM 64.9 °F - 39.0 °F 39% 29.95 in 10.0 mi Calm Calm - N/A   Clear
1:53 PM 68.0 °F - 37.9 °F 33% 29.92 in 10.0 mi Calm Calm - N/A   Clear
2:53 PM 69.8 °F - 35.6 °F 28% 29.90 in 10.0 mi Calm Calm - N/A   Clear
3:53 PM 73.0 °F - 34.0 °F 24% 29.88 in 10.0 mi Calm Calm - N/A   Clear
4:53 PM 72.0 °F - 33.1 °F 24% 29.86 in 10.0 mi Calm Calm - N/A   Clear
5:53 PM 64.4 °F - 35.6 °F 34% 29.85 in 10.0 mi Calm Calm - N/A   Clear
6:53 PM 57.0 °F - 34.0 °F 42% 29.84 in 10.0 mi ENE 4.6 mph - N/A   Clear
7:53 PM 52.0 °F - 34.0 °F 50% 29.83 in 10.0 mi Calm Calm - N/A   Clear
8:53 PM 52.0 °F - 37.0 °F 57% 29.82 in 10.0 mi NNE 4.6 mph - N/A   Clear
9:53 PM 48.0 °F - 36.0 °F 63% 29.82 in 10.0 mi Calm Calm - N/A   Clear
10:53 PM 46.0 °F - 36.0 °F 68% 29.82 in 10.0 mi Calm Calm - N/A   Clear
11:53 PM 45.0 °F 42.6 °F 36.0 °F 71% 29.81 in 10.0 mi NE 4.6 mph - N/A   Clear